GW4732 Weather Reports


Display with metric or nautical units.
time (UTC)temp
F
wind
direction
speed
MPH
gust
MPH
rain 1hr
in
rain 24hr
in
rain mn
in
humidity
%
barometer
mb
20260509185314 70 133 1.0 6.0 0.00 0.00 0.00 52 1010.6
20260509184812 68 158 6.0 9.0 0.00 0.00 0.00 56 1010.7
20260509184309 68 132 5.0 9.0 0.00 0.00 0.00 53 1010.9
20260509183805 69 219 6.0 9.0 0.00 0.00 0.00 54 1011.0
20260509183300 68 227 5.0 10.0 0.00 0.00 0.00 53 1011.1
20260509182756 68 200 4.0 8.0 0.00 0.00 0.00 58 1011.1
20260509182254 67 155 7.0 15.0 0.00 0.00 0.00 58 1011.2
20260509181751 66 87 4.0 7.0 0.00 0.00 0.00 57 1011.5
20260509181248 66 170 7.0 10.0 0.00 0.00 0.00 57 1011.0
20260509180745 67 139 3.0 8.0 0.00 0.00 0.00 56 1011.2
20260509180242 66 114 3.0 6.0 0.00 0.00 0.00 60 1011.4
20260509175738 65 94 5.0 8.0 0.00 0.00 0.00 59 1011.7
20260509175234 66 128 5.0 8.0 0.00 0.00 0.00 61 1011.8
20260509174730 65 82 4.0 4.0 0.00 0.00 0.00 62 1011.7
20260509174226 64 92 4.0 7.0 0.00 0.00 0.00 63 1012.0
20260509173722 64 81 2.0 2.0 0.00 0.00 0.00 62 1012.1
20260509173218 64 82 3.0 7.0 0.00 0.00 0.00 64 1011.8
20260509172714 64 95 3.0 7.0 0.00 0.00 0.00 62 1012.2
20260509172211 64 95 5.0 6.0 0.00 0.00 0.00 63 1012.4
20260509171706 62 20 3.0 6.0 0.00 0.00 0.00 66 1012.6
20260509171203 63 15 2.0 3.0 0.00 0.00 0.00 64 1012.5
20260509170700 62 93 1.0 4.0 0.00 0.00 0.00 65 1012.6
20260509170156 62 61 4.0 4.0 0.00 0.00 0.00 66 1012.9
20260509165654 62 80 3.0 6.0 0.00 0.00 0.00 65 1012.7
20260509165150 62 80 3.0 4.0 0.00 0.00 0.00 68 1012.6
20260509164646 61 36 3.0 6.0 0.00 0.00 0.00 68 1012.8
20260509164142 61 355 3.0 6.0 0.00 0.00 0.00 67 1012.4
20260509163639 61 26 5.0 7.0 0.00 0.00 0.00 64 1012.5
20260509163135 61 42 5.0 9.0 0.00 0.00 0.00 66 1012.4
20260509162633 62 61 4.0 8.0 0.00 0.00 0.00 66 1012.3
20260509162128 62 72 4.0 7.0 0.00 0.00 0.00 65 1012.1
20260509161625 62 41 7.0 9.0 0.00 0.00 0.00 66 1012.3
20260509161120 61 56 7.0 8.0 0.00 0.00 0.00 65 1012.3
20260509160616 61 31 6.0 8.0 0.00 0.00 0.00 65 1012.5
20260509160111 61 36 3.0 6.0 0.00 0.00 0.00 67 1012.7
20260509155608 61 91 3.0 3.0 0.00 0.00 0.00 66 1012.8
20260509155104 62 46 4.0 7.0 0.00 0.00 0.00 67 1012.9
20260509154600 62 83 2.0 9.0 0.00 0.00 0.00 65 1012.6
20260509154058 62 39 6.0 7.0 0.00 0.00 0.00 64 1012.7
20260509153554 63 98 3.0 6.0 0.00 0.00 0.00 63 1012.9
20260509153052 62 58 0.0 4.0 0.00 0.00 0.00 63 1012.8
20260509152547 62 110 4.0 6.0 0.00 0.00 0.00 63 1012.8
20260509152045 61 111 3.0 6.0 0.00 0.00 0.00 67 1012.7
20260509151541 61 103 6.0 8.0 0.00 0.00 0.00 64 1012.8
20260509151039 62 28 3.0 8.0 0.00 0.00 0.00 66 1012.6
20260509150536 61 104 7.0 8.0 0.00 0.00 0.00 62 1012.9
20260509150035 61 84 4.0 7.0 0.00 0.00 0.00 65 1012.9
20260509145530 61 53 3.0 4.0 0.00 0.00 0.00 64 1012.9
20260509145025 60 73 3.0 6.0 0.00 0.00 0.00 67 1013.2
20260509144522 60 34 2.0 7.0 0.00 0.00 0.00 66 1013.0
20260509144019 60 84 3.0 4.0 0.00 0.00 0.00 65 1013.1
20260509143516 60 103 2.0 3.0 0.00 0.00 0.00 67 1013.2
20260509143014 59 125 2.0 4.0 0.00 0.00 0.00 69 1013.0
20260509142509 59 128 2.0 2.0 0.00 0.00 0.00 70 1013.0
20260509142005 58 128 0.0 2.0 0.00 0.00 0.00 69 1013.1
20260509141502 58 128 1.0 2.0 0.00 0.00 0.00 71 1013.1
20260509140959 57 128 1.0 1.0 0.00 0.00 0.00 70 1013.3
20260509140455 57 128 1.0 3.0 0.00 0.00 0.00 71 1013.1
20260509135953 57 51 2.0 4.0 0.00 0.00 0.00 72 1012.7
20260509135450 57 24 5.0 6.0 0.00 0.00 0.00 73 1012.4
20260509134948 57 60 5.0 7.0 0.00 0.00 0.00 73 1012.4
20260509134445 57 79 2.0 3.0 0.00 0.00 0.00 73 1012.7
20260509133942 57 57 3.0 4.0 0.00 0.00 0.00 73 1012.7
20260509133439 57 106 3.0 3.0 0.00 0.00 0.00 73 1012.7
20260509132937 56 85 4.0 4.0 0.00 0.00 0.00 73 1012.5
20260509132435 56 65 2.0 2.0 0.00 0.00 0.00 74 1012.7
20260509131932 56 80 2.0 3.0 0.00 0.00 0.00 73 1012.7
20260509131429 57 92 2.0 4.0 0.00 0.00 0.00 72 1012.8
20260509130925 56 108 4.0 6.0 0.00 0.00 0.00 72 1012.7
20260509130420 56 91 2.0 3.0 0.00 0.00 0.00 73 1012.9
20260509125918 56 67 1.0 2.0 0.00 0.00 0.00 71 1013.1
20260509125415 56 61 2.0 3.0 0.00 0.00 0.00 71 1012.9
20260509124910 56 41 2.0 3.0 0.00 0.00 0.00 72 1012.8
20260509124408 56 94 2.0 2.0 0.00 0.00 0.00 73 1012.7
20260509123905 56 91 1.0 3.0 0.00 0.00 0.00 73 1012.6
20260509123402 56 13 2.0 2.0 0.00 0.00 0.00 74 1012.7
20260509122858 56 13 1.0 2.0 0.00 0.00 0.00 74 1012.9
20260509122355 56 13 1.0 2.0 0.00 0.00 0.00 73 1012.6
20260509121852 56 12 1.0 1.0 0.00 0.00 0.00 73 1012.9
20260509121349 56 11 2.0 3.0 0.00 0.00 0.00 74 1012.9
20260509120847 56 31 1.0 3.0 0.00 0.00 0.00 74 1012.9
20260509120345 56 29 3.0 4.0 0.00 0.00 0.00 72 1012.9
20260509115842 56 10 2.0 3.0 0.00 0.00 0.00 73 1013.0
20260509115339 56 15 2.0 2.0 0.00 0.00 0.00 72 1012.9
20260509114837 55 15 0.0 0.0 0.00 0.00 0.00 72 1012.9
20260509114336 55 15 0.0 0.0 0.00 0.00 0.00 73 1012.9
20260509113835 55 15 0.0 0.0 0.00 0.00 0.00 71 1012.6
20260509113331 55 15 0.0 0.0 0.00 0.00 0.00 72 1012.7
20260509112828 55 15 2.0 2.0 0.00 0.00 0.00 70 1012.6
20260509112325 55 16 1.0 2.0 0.00 0.00 0.00 71 1012.4
20260509111822 55 15 0.0 1.0 0.00 0.00 0.00 73 1012.5
20260509111319 55 15 0.0 1.0 0.00 0.00 0.00 70 1012.4
20260509110817 55 15 1.0 2.0 0.00 0.00 0.00 71 1012.5
20260509110313 54 19 4.0 6.0 0.00 0.00 0.00 72 1012.6
20260509105811 54 36 0.0 1.0 0.00 0.00 0.00 76 1012.7
20260509105309 53 268 2.0 2.0 0.00 0.00 0.00 79 1012.6
20260509104805 53 267 0.0 1.0 0.00 0.00 0.00 75 1012.6
20260509104302 53 267 1.0 1.0 0.00 0.00 0.00 77 1012.4
20260509103800 54 267 0.0 0.0 0.00 0.00 0.00 77 1012.3
20260509103257 54 268 0.0 0.0 0.00 0.00 0.00 70 1012.1
20260509102755 54 268 0.0 0.0 0.00 0.00 0.00 72 1012.0
20260509102252 54 268 0.0 0.0 0.00 0.00 0.00 69 1012.0
20260509101748 54 268 0.0 0.0 0.00 0.00 0.00 68 1012.1
20260509101244 54 268 0.0 0.0 0.00 0.00 0.00 68 1012.1
20260509100742 54 268 0.0 0.0 0.00 0.00 0.00 68 1012.0
20260509100239 54 268 0.0 1.0 0.00 0.00 0.00 74 1012.0
20260509095736 55 268 1.0 2.0 0.00 0.00 0.00 69 1011.9
20260509095233 54 268 0.0 0.0 0.00 0.00 0.00 69 1012.0
20260509094730 55 268 0.0 0.0 0.00 0.00 0.00 70 1012.0
20260509094227 55 268 0.0 0.0 0.00 0.00 0.00 67 1011.9
20260509093725 55 268 0.0 0.0 0.00 0.00 0.00 68 1011.8
20260509093222 55 267 0.0 1.0 0.00 0.00 0.00 67 1012.1
20260509092720 55 267 0.0 0.0 0.00 0.00 0.00 67 1011.8
20260509092218 55 267 0.0 0.0 0.00 0.00 0.00 67 1011.9
20260509091716 55 267 0.0 0.0 0.00 0.00 0.00 66 1011.9
20260509091211 55 268 0.0 1.0 0.00 0.00 0.00 68 1011.9
20260509090710 54 268 1.0 1.0 0.00 0.00 0.00 68 1011.9
20260509090206 54 268 0.0 1.0 0.00 0.00 0.00 69 1011.8
20260509085704 54 268 0.0 0.0 0.00 0.00 0.00 70 1011.9
20260509085200 54 268 0.0 0.0 0.00 0.00 0.00 68 1012.1
20260509084657 55 267 1.0 1.0 0.00 0.00 0.00 69 1012.0
20260509084154 55 268 0.0 1.0 0.00 0.00 0.00 64 1011.9
20260509083652 56 268 0.0 0.0 0.00 0.00 0.00 64 1011.8
20260509083148 56 267 1.0 2.0 0.00 0.00 0.00 64 1012.0
20260509082645 56 271 1.0 3.0 0.00 0.00 0.00 65 1012.0
20260509082142 56 264 3.0 4.0 0.00 0.00 0.00 64 1012.2
20260509081639 56 202 2.0 4.0 0.00 0.00 0.00 64 1012.0
20260509081136 56 287 1.0 3.0 0.00 0.00 0.00 63 1012.0
20260509080635 56 243 1.0 4.0 0.00 0.00 0.00 63 1012.1
20260509080132 56 217 0.0 4.0 0.00 0.00 0.00 64 1012.1
20260509075630 55 290 1.0 2.0 0.00 0.00 0.00 65 1012.3
20260509075128 55 273 1.0 1.0 0.00 0.00 0.00 66 1012.2
20260509074624 55 212 3.0 3.0 0.00 0.00 0.00 68 1012.1
20260509074120 55 209 3.0 3.0 0.00 0.00 0.00 67 1012.1
20260509073618 55 285 0.0 2.0 0.00 0.00 0.00 64 1012.0
20260509073114 55 286 2.0 2.0 0.00 0.00 0.00 65 1012.1
20260509072611 55 270 1.0 2.0 0.00 0.00 0.00 65 1012.1
20260509072107 55 192 2.0 3.0 0.00 0.00 0.00 66 1012.1
20260509071604 55 273 1.0 3.0 0.00 0.00 0.00 65 1012.2
20260509071101 55 275 1.0 3.0 0.00 0.00 0.00 65 1012.3
20260509070559 55 293 3.0 4.0 0.00 0.00 0.00 66 1012.2
20260509070054 54 271 3.0 4.0 0.00 0.00 0.00 68 1012.3
20260509065550 54 276 2.0 2.0 0.00 0.00 0.00 70 1012.2
20260509065046 54 271 2.0 2.0 0.00 0.00 0.00 70 1012.2
20260509064544 54 236 0.0 2.0 0.00 0.00 0.00 68 1012.4
20260509064042 54 280 0.0 2.0 0.00 0.00 0.00 68 1012.3
20260509063537 54 280 1.0 2.0 0.00 0.00 0.00 68 1012.4
20260509063035 54 281 1.0 2.0 0.00 0.00 0.00 66 1012.5
20260509062532 55 224 1.0 2.0 0.00 0.00 0.00 65 1012.5
20260509062030 55 222 0.0 2.0 0.00 0.00 0.00 64 1012.5
20260509061526 56 268 0.0 2.0 0.00 0.00 0.00 61 1012.6
20260509061024 57 281 2.0 2.0 0.00 0.00 0.00 60 1012.6
20260509060521 56 285 0.0 1.0 0.00 0.00 0.00 59 1012.7
20260509060017 57 286 0.0 0.0 0.00 0.00 0.00 60 1012.8
20260509055512 57 286 1.0 1.0 0.00 0.00 0.00 59 1012.5
20260509055009 57 285 1.0 2.0 0.00 0.00 0.00 58 1012.6
20260509054505 57 284 1.0 2.0 0.00 0.00 0.00 59 1012.7
20260509054003 56 291 1.0 3.0 0.00 0.00 0.00 60 1012.6
20260509053501 56 295 3.0 3.0 0.00 0.00 0.00 62 1012.8
20260509052958 55 305 2.0 3.0 0.00 0.00 0.00 62 1012.7
20260509052455 55 289 1.0 2.0 0.00 0.00 0.00 63 1012.6
20260509051954 55 242 2.0 2.0 0.00 0.00 0.00 62 1012.8
20260509051451 56 242 0.0 2.0 0.00 0.00 0.00 61 1012.7
20260509050948 56 241 1.0 2.0 0.00 0.00 0.00 60 1012.8
20260509050444 56 242 1.0 2.0 0.00 0.00 0.00 59 1012.9
20260509045941 55 242 2.0 2.0 0.00 0.00 0.00 61 1012.7
20260509045438 54 242 1.0 2.0 0.00 0.00 0.00 65 1012.7
20260509044935 55 241 2.0 2.0 0.00 0.00 0.00 64 1012.7
20260509044433 55 242 0.0 2.0 0.00 0.00 0.00 61 1012.8
20260509043930 55 242 0.0 1.0 0.00 0.00 0.00 60 1012.9
20260509043426 54 242 0.0 0.0 0.00 0.00 0.00 63 1012.9
20260509042921 54 242 0.0 0.0 0.00 0.00 0.00 66 1013.1
20260509042419 53 242 0.0 0.0 0.00 0.00 0.00 65 1013.0
20260509041915 53 242 0.0 0.0 0.00 0.00 0.00 66 1013.0
20260509041412 53 242 1.0 1.0 0.00 0.00 0.00 68 1013.0
20260509040910 55 242 0.0 1.0 0.00 0.00 0.00 62 1012.9
20260509040408 55 242 0.0 1.0 0.00 0.00 0.00 60 1013.0
20260509035904 55 242 1.0 1.0 0.00 0.00 0.00 61 1012.9
20260509035401 55 242 2.0 2.0 0.00 0.00 0.00 60 1013.0
20260509034857 55 241 0.0 0.0 0.00 0.00 0.00 61 1013.0
20260509034355 55 241 0.0 0.0 0.00 0.00 0.00 64 1013.1
20260509033852 55 241 0.0 0.0 0.00 0.00 0.00 61 1013.1
20260509033349 56 241 0.0 0.0 0.00 0.00 0.00 59 1013.0
20260509032846 56 241 0.0 0.0 0.00 0.00 0.00 57 1013.0
20260509032343 56 241 0.0 0.0 0.00 0.00 0.00 57 1013.2
20260509031842 56 241 0.0 0.0 0.00 0.00 0.00 58 1013.1
20260509031338 56 241 1.0 1.0 0.00 0.00 0.00 58 1012.9
20260509030836 56 241 1.0 1.0 0.00 0.00 0.00 59 1012.9
20260509030334 56 241 0.0 0.0 0.00 0.00 0.00 58 1013.1
20260509025830 55 241 0.0 0.0 0.00 0.00 0.00 59 1013.1
20260509025325 55 241 0.0 0.0 0.00 0.00 0.00 60 1013.1
20260509024821 55 241 0.0 0.0 0.00 0.00 0.00 61 1013.2
20260509024317 55 241 0.0 0.0 0.00 0.00 0.00 60 1013.3
20260509023815 55 241 0.0 0.0 0.00 0.00 0.00 60 1013.3
20260509023312 55 241 0.0 0.0 0.00 0.00 0.00 60 1013.4
20260509022808 56 241 0.0 0.0 0.00 0.00 0.00 60 1013.4
20260509022307 56 241 0.0 0.0 0.00 0.00 0.00 58 1013.5
20260509021802 58 241 0.0 0.0 0.00 0.00 0.00 54 1013.3
20260509021300 58 241 0.0 0.0 0.00 0.00 0.00 53 1013.2
20260509020757 59 241 0.0 0.0 0.00 0.00 0.00 52 1013.4
20260509020255 59 241 0.0 0.0 0.00 0.00 0.00 51 1013.5
20260509015752 59 241 0.0 0.0 0.00 0.00 0.00 52 1013.4
20260509015250 59 241 0.0 1.0 0.00 0.00 0.00 51 1013.2
20260509014746 60 241 1.0 1.0 0.00 0.00 0.00 51 1013.1
20260509014244 60 241 1.0 2.0 0.00 0.00 0.00 50 1013.2
20260509013741 60 241 1.0 2.0 0.00 0.00 0.00 52 1013.5
20260509013236 60 241 1.0 1.0 0.00 0.00 0.00 51 1013.3
20260509012733 60 241 1.0 1.0 0.00 0.00 0.00 51 1013.4
20260509012230 60 241 1.0 1.0 0.00 0.00 0.00 51 1013.2
20260509011727 60 241 0.0 0.0 0.00 0.00 0.00 51 1013.4
20260509011225 60 241 0.0 0.0 0.00 0.00 0.00 50 1013.3
20260509010722 60 241 0.0 0.0 0.00 0.00 0.00 50 1013.2
20260509010218 60 241 0.0 0.0 0.00 0.00 0.00 52 1013.0
20260509005716 61 241 0.0 0.0 0.00 0.00 0.00 50 1013.2
20260509005213 60 241 0.0 0.0 0.00 0.00 0.00 50 1013.2
20260509004707 61 241 0.0 0.0 0.00 0.00 0.00 49 1013.3
20260509004205 62 241 0.0 0.0 0.00 0.00 0.00 48 1013.1
20260509003703 62 241 0.0 0.0 0.00 0.00 0.00 48 1013.1
20260509003201 62 241 0.0 0.0 0.00 0.00 0.00 48 1013.1
20260509002658 62 241 0.0 0.0 0.00 0.00 0.00 48 1013.3
20260509002155 62 241 1.0 2.0 0.00 0.00 0.00 49 1013.1
20260509001653 63 241 1.0 1.0 0.00 0.00 0.00 50 1013.0
20260509001148 63 241 1.0 2.0 0.00 0.00 0.00 48 1013.0
20260509000646 64 241 1.0 2.0 0.00 0.00 0.00 46 1013.0
20260509000143 64 242 2.0 2.0 0.00 0.00 0.00 45 1012.9
20260508235641 64 306 1.0 2.0 0.00 0.00 0.00 46 1012.8
20260508235137 64 307 2.0 2.0 0.00 0.00 0.00 50 1012.7
20260508234634 64 307 1.0 2.0 0.00 0.00 0.00 49 1012.8
20260508234130 64 307 1.0 2.0 0.00 0.00 0.00 50 1012.7
20260508233630 65 8 1.0 1.0 0.00 0.00 0.00 47 1012.7
20260508233127 66 8 0.0 0.0 0.00 0.00 0.00 43 1012.9
20260508232624 66 8 0.0 1.0 0.00 0.00 0.00 41 1012.6
20260508232121 66 8 0.0 1.0 0.00 0.00 0.00 42 1012.7
20260508231619 67 8 1.0 1.0 0.00 0.00 0.00 40 1012.6
20260508231115 66 8 1.0 1.0 0.00 0.00 0.00 39 1012.6
20260508230612 67 27 2.0 3.0 0.00 0.00 0.00 38 1012.7
20260508230108 67 7 2.0 3.0 0.00 0.00 0.00 39 1012.5
20260508225607 67 11 3.0 3.0 0.00 0.00 0.00 38 1012.5
20260508225102 67 19 3.0 3.0 0.00 0.00 0.00 38 1012.5
20260508224601 67 22 2.0 3.0 0.00 0.00 0.00 38 1012.4
20260508224057 66 358 2.0 2.0 0.00 0.00 0.00 41 1012.5
20260508223555 66 358 1.0 1.0 0.00 0.00 0.00 40 1012.6
20260508223052 66 348 1.0 2.0 0.00 0.00 0.00 40 1012.5
20260508222550 67 352 1.0 3.0 0.00 0.00 0.00 40 1012.7
20260508222047 67 334 3.0 6.0 0.00 0.00 0.00 37 1012.5
20260508221543 67 3 0.0 3.0 0.00 0.00 0.00 38 1012.7
20260508221038 68 34 3.0 6.0 0.00 0.00 0.00 36 1012.6
20260508220536 70 333 3.0 4.0 0.00 0.00 0.00 35 1012.6
20260508220032 69 344 4.0 6.0 0.00 0.00 0.00 34 1012.5
20260508215529 69 284 3.0 7.0 0.00 0.00 0.00 36 1012.7
20260508215025 68 284 2.0 4.0 0.00 0.00 0.00 35 1012.6
20260508214523 68 8 4.0 10.0 0.00 0.00 0.00 35 1012.7
20260508214019 68 340 4.0 7.0 0.00 0.00 0.00 35 1012.8
20260508213517 67 358 5.0 7.0 0.00 0.00 0.00 36 1012.9
20260508213012 67 18 4.0 6.0 0.00 0.00 0.00 35 1012.8
20260508212509 67 315 3.0 6.0 0.00 0.00 0.00 35 1012.7
20260508212006 67 338 4.0 7.0 0.00 0.00 0.00 37 1012.8
20260508211501 67 335 3.0 7.0 0.00 0.00 0.00 37 1012.8
20260508210958 67 312 5.0 7.0 0.00 0.00 0.00 37 1012.8
20260508210454 67 325 4.0 6.0 0.00 0.00 0.00 34 1012.8
20260508205950 67 5 3.0 8.0 0.00 0.00 0.00 35 1012.6
20260508205448 67 346 3.0 7.0 0.00 0.00 0.00 37 1012.8
20260508204944 68 337 6.0 11.0 0.00 0.00 0.00 35 1012.9
20260508204442 68 338 5.0 11.0 0.00 0.00 0.00 37 1012.9
20260508203937 68 357 4.0 4.0 0.00 0.00 0.00 35 1012.9
20260508203433 68 22 2.0 6.0 0.00 0.00 0.00 33 1013.0
20260508202929 69 242 5.0 7.0 0.00 0.00 0.00 31 1012.9
20260508202427 69 12 2.0 4.0 0.00 0.00 0.00 32 1012.9
20260508201923 70 341 9.0 11.0 0.00 0.00 0.00 33 1012.9
20260508201420 70 270 4.0 4.0 0.00 0.00 0.00 31 1012.9
20260508200917 68 264 0.0 6.0 0.00 0.00 0.00 34 1013.0
20260508200414 68 255 2.0 10.0 0.00 0.00 0.00 32 1013.0
20260508195909 69 269 6.0 7.0 0.00 0.00 0.00 31 1012.8
20260508195407 69 2 5.0 10.0 0.00 0.00 0.00 31 1012.9
20260508194902 70 281 4.0 14.0 0.00 0.00 0.00 32 1013.1
20260508194400 69 291 0.0 9.0 0.00 0.00 0.00 35 1013.2
20260508193857 70 330 6.0 10.0 0.00 0.00 0.00 31 1013.2
20260508193353 70 321 3.0 8.0 0.00 0.00 0.00 33 1013.4
20260508192850 70 247 4.0 10.0 0.00 0.00 0.00 31 1013.3
20260508192347 69 307 4.0 7.0 0.00 0.00 0.00 31 1013.5
20260508191844 69 277 3.0 7.0 0.00 0.00 0.00 37 1013.6
20260508191341 69 264 6.0 8.0 0.00 0.00 0.00 31 1013.6
20260508190838 70 7 1.0 14.0 0.00 0.00 0.00 32 1013.8
20260508190335 69 26 6.0 13.0 0.00 0.00 0.00 33 1013.8
20260508185831 71 293 4.0 8.0 0.00 0.00 0.00 30 1013.9